Regional Weather Roundup
Issued by NWS Wilmington, NC

Home | Current Version | Previous Version | Text Only | Print | Product List | Glossary On
Versions: 1 2 3 4 5 6 7 8 9 10 11 12 13 14 15 16 17 18 19 20 21 22 23 24 25 26 27 28 29 30 31 32 33 34 35 36 37 38 39 40 41 42 43 44 45 46 47 48 49 50
000
ASUS42 KILM 210610
RWRILM
RWRILM
REGIONAL HOURLY WEATHER ROUNDUP
NATIONAL WEATHER SERVICE WILMINGTON NC
200 AM EDT THU AUG 21 2014

NOTE: "FAIR" INDICATES FEW OR NO CLOUDS BELOW 12,000 FEET WITH NO
SIGNIFICANT WEATHER AND/OR OBSTRUCTIONS TO VISIBILITY.

...............WFO WILMINGTON COUNTY WARNING AREA...............

......COASTAL NC AND SC COUNTIES......

CITY           SKY/WX    TMP DP  RH WIND       PRES   REMARKS
WILMINGTON     FAIR      74  73  97 CALM      30.01F FOG
SOUTHPORT      FAIR      76  75  95 CALM      30.01F
N MYRTLE BEACH FAIR      78  77  96 CALM      30.01S FOG
MYRTLE BEACH   FAIR      79  75  89 CALM      30.01F

......INLAND NC AND SC COUNTIES.......

CITY           SKY/WX    TMP DP  RH WIND       PRES   REMARKS
LUMBERTON      FAIR      75  74  96 CALM      30.01S FOG
ELIZABETHTOWN  FAIR      77  74  91 CALM      30.01S
WHITEVILLE     FAIR      75  73  94 CALM      30.01S
FLORENCE       FAIR      77  74  90 CALM      30.01F
DARLINGTON     FAIR      73  70  88 S3        30.02F

....................REST OF NORTH CAROLINA......................

.........EASTERN NC.........

CITY           SKY/WX    TMP DP  RH WIND       PRES   REMARKS
CAPE HATTERAS  FAIR      74  73  97 SE5       30.01F
JACKSONVILLE   FAIR      72  70  94 CALM      30.01F
MOREHEAD CITY  FAIR      79  76  90 CALM      30.01F
KENANSVILLE    FAIR      72  70  96 CALM      30.01F FOG
NEW BERN       FAIR      77  73  87 S3        30.02F
ELIZABETH CITY FAIR      73  71  93 CALM      30.01S FOG

.........CENTRAL NC.........

CITY           SKY/WX    TMP DP  RH WIND       PRES   REMARKS
RALEIGH DURHAM FAIR      75  71  87 S3        30.01F
ROCKY MOUNT    FAIR      73  71  93 CALM      30.00F FOG
ROANOKE RAPIDS NOT AVBL
FAYETTEVILLE   FAIR      76  73  91 CALM      30.00F
HOFFMAN        FAIR      74  73  98 SE1       30.02F

.........WESTERN NC.........

CITY           SKY/WX    TMP DP  RH WIND       PRES   REMARKS
CHARLOTTE      CLOUDY    75  68  78 S3        30.02F
GREENSBORO     MOCLDY    74  71  91 CALM      30.02F
HICKORY        NOT AVBL
BOONE          NOT AVBL
ASHEVILLE      NOT AVBL

.....................REST OF SOUTH CAROLINA.....................

.........EASTERN SC.........

CITY           SKY/WX    TMP DP  RH WIND       PRES   REMARKS
CHARLESTON     FAIR      80  74  81 S3        30.02F
BEAUFORT MCAS  FAIR      78  71  79 NW6       30.03F
HILTON HEAD    NOT AVBL

.........CENTRAL SC.........

CITY           SKY/WX    TMP DP  RH WIND       PRES   REMARKS
COLUMBIA       MOCLDY    80  70  71 W6        30.02F
ORANGEBURG     FAIR      77  69  76 CALM      30.03F
SUMTER SHAW    FAIR      80  73  78 W9        30.00F

.........WESTERN SC.........

CITY           SKY/WX    TMP DP  RH WIND       PRES   REMARKS
GREENVILLE     NOT AVBL
ROCK HILL      FAIR      74  71  91 CALM      30.03F
ANDERSON       FAIR      72  68  87 CALM      30.06F
CLEMSON        NOT AVBL
GREENWOOD      FAIR      73  66  78 W3        30.06F


...................COASTAL AND OFFSHORE REPORTS..................

................LOCAL PIERS AND NC RESERVE................


STATION/POSITION TIME  SKY/WX   TEMP    WIND        PRES    VSBY
                                AIR SEA DIR/SP/G
                 (UTC)          (F)     (DEG/KT/KT) (MB)    (MI)
JOHNY MRCER PIER 0600            80 83  150/  2/  3 1015.6F
NC RESRV MASNBRO 0500            77        CALM     1016.0S
OCEAN CREST PIER 0600            83 85  190/  6/  7 1015.2F
SPRINGMAID  PIER 0600            81 83  230/  4/  4 1016.2S


................COASTAL AND OFFSHORE BUOYS................


STATION/POSITION TIME  SKY/WX   TEMP    WIND        PRES    VSBY
                                AIR SEA DIR/SP/G
                 (UTC)          (F)     (DEG/KT/KT) (MB)    (MI)
DIMNDSHOAL 41025 0600            78      CALM  /  4 1016.3F
WVE H/P(F/S)=  2/ 8

CAPE LOOKOUT     0500            80     230/  5/  6 1016.7F
ONSLOW BAY 41036 0600            81 82  230/  4/  6 1016.1F
WVE H/P(F/S)=  3/ 6 WND WVE H/P(F/S)=  2/ 3 SWL H/P/D(F/S/D)=  3/200/ 6

5 WRITEBCH 41038 0600            78 82  180/  4/  4   N/A
MASONBORO  41110 0600               82                N/A
WVE H/P(F/S)=  2/ 6 WND WVE H/P(F/S)=  2/ 6

WILM HARBR 41108 0600               84                N/A
WVE H/P(F/S)=  2/ 6 WND WVE H/P(F/S)=  2/ 6

27WRITEBCH 41037 0500            79 83  250/  6/  6 1016.8F
FRYING PAN 41013 NOT AVBL
SUNST NRSH 41024 0500            84     220/  6/  6 1016.2F
CAPRS NRSH 41029 0500            85     240/  8/ 10   N/A
EDISTO     41004 0600            83 84  220/ 10/ 12 1016.0F
WVE H/P(F/S)=  3/ 4 WND WVE H/P(F/S)=  2/ 4 SWL H/P/D(F/S/D)=  2/ 8



..........OFFSHORE BUOYS BEYOND 100 NM OFFSHORE...........
.....IN A TRIANGLE---HAT TO BERMUDA TO BAHAMAS TO HAT.....


STATION/POSITION TIME  SKY/WX   TEMP    WIND        PRES    VSBY
                                AIR SEA DIR/SP/G
                 (UTC)          (F)     (DEG/KT/KT) (MB)    (MI)
150E HAT   41001 NOT AVBL
W BERMUDA  41048 0535            82 81  230/ 17/ 21 1018.1F
WVE H/P(F/S)=  6/ 7 WND WVE H/P(F/S)=  7/ 7

ATLANTIC S 41049 0532            84 86   90/ 10/ 12 1020.4F
WVE H/P(F/S)=  2/ 8 WND WVE H/P(F/S)=  2/ 4 SWL H/P/D(F/S/D)=  2/110/ 8

E BAHAMAS  41046 0509            84 85   90/ 12/ 14 1019.2F
WVE H/P(F/S)=  4/ 9 WND WVE H/P(F/S)=  3/ 5 SWL H/P/D(F/S/D)=  2/ 50/ 9

NE BAHAMAS 41047 0524            83 84  130/  6/  6 1020.7F
WVE H/P(F/S)=  2/ 6 WND WVE H/P(F/S)=  2/ 4 SWL H/P/D(F/S/D)=  2/180/ 6

120E CANVRL41010 0600            84 85  190/ 12/ 16 1018.7F
WVE H/P(F/S)=  2/ 9 WND WVE H/P(F/S)=  2/ 6 SWL H/P/D(F/S/D)=  2/110/ 9


END



USA.gov is the U.S. government's official web portal to all federal, state and local government web resources and services.